Regional Weather Roundup
Issued by NWS Sioux Falls, SD

Home | Current Version | Previous Version | Graphics & Text | Print | Product List | Glossary On
Versions: 1 2 3 4 5 6 7 8 9 10 11 12 13 14 15 16 17 18 19 20 21 22 23 24 25 26 27 28 29 30 31 32 33 34 35 36 37 38 39 40 41 42 43 44 45 46 47 48 49 50
000
ASUS43 KFSD 240702
RWRFSD

WEATHER ROUNDUP FOR SE SOUTH DAKOTA/SW MINNESOTA/NW IOWA
NATIONAL WEATHER SERVICE SIOUX FALLS SD
200 AM CDT MON APR 24 2017

NOTE: "FAIR" INDICATES FEW OR NO CLOUDS BELOW 12,000 FEET WITH NO
SIGNIFICANT WEATHER AND OR OBSTRUCTIONS TO VISIBILITY.


SDZ038>040-050-052>070-240800-
SOUTHEAST SOUTH DAKOTA

CITY           SKY/WX    TMP DP  RH WIND       PRES   REMARKS
CHAMBERLAIN    CLOUDY    61  35  37 SE20G32   29.59F
HURON          CLOUDY    57  34  41 S14       29.63F
MADISON        FAIR      54  32  43 S18G26    29.72F
MITCHELL       CLOUDY    56  35  45 S15       29.66F
SIOUX FALLS    CLOUDY    56  34  43 S16G26    29.74F
WINNER         FAIR      60  32  34 S22G30    29.59F
YANKTON        CLOUDY    57  34  41 S12       29.73F
$$

MNZ071-072-080-081-089-090-097-098-240800-
SOUTHWEST MINNESOTA

CITY           SKY/WX    TMP DP  RH WIND       PRES   REMARKS
FAIRMONT       CLOUDY    50  35  56 S12       29.85F
JACKSON        MOCLDY    52  32  46 S13       29.83F
MARSHALL       CLOUDY    58  32  37 S20       29.73F
MONTEVIDEO     CLOUDY    48  37  66 SE12      29.74F
PIPESTONE      PTCLDY    52  28  40 S15       29.76F
REDWOOD FALLS  PTCLDY    54  33  45 S15       29.77F
TRACY          CLOUDY    58  32  37 S16       29.77S
WINDOM         CLOUDY    55  30  38 S14G20    29.80F
WORTHINGTON    PTCLDY    53  31  42 S16       29.81F
$$

IAZ001>003-012>014-020>022-031-032-NEZ013-014-SDZ071-240800-
NORTHWEST IOWA

CITY           SKY/WX    TMP DP  RH WIND       PRES   REMARKS
CHEROKEE       CLOUDY    47  34  60 S8        29.84F
DENISON        CLOUDY    52  34  50 S10       29.88F
ESTHERVILLE    CLOUDY    48  35  60 S13       29.84F
LE MARS        CLOUDY    54  32  43 S13G18    29.81F
ORANGE CITY    CLOUDY    52  34  50 S9        29.81F
SHELDON        CLOUDY    50  32  50 S15       29.79F
SIOUX CITY     PTCLDY    55  32  41 SE12      29.81F
SPENCER        CLOUDY    50  34  54 MISG      29.83F
STORM LAKE     MOCLDY    48  32  53 S14       29.85F
$$

ABBREVIATIONS USED IN REMARKS
   TC - TEMPERATURE IN CELSIUS
  WCI - WIND CHILL INDEX
   HX - HEAT INDEX
  VSB - VISIBILITY





USA.gov is the U.S. government's official web portal to all federal, state and local government web resources and services.